Weather Roundup
Issued by NWS Springfield, MO

Home | Current Version | Previous Version | Text Only | Print | Product List | Glossary On
Versions: 1 2 3 4 5 6 7 8 9 10 11 12 13 14 15 16 17 18 19 20 21 22 23 24 25 26 27 28 29 30 31 32 33 34 35 36 37 38 39 40 41 42 43 44 45 46 47 48 49 50
000
NZUS99 KSGF 191157
HRRSGF

HOURLY WEATHER
NATIONAL WEATHER SERVICE SPRINGFIELD MO
700 AM CDT SAT AUG 19 2017

......SGF CWA......

CITY           SKY/WX    TMP DP  RH WIND       PRES   REMARKS
SPRINGFIELD    CLEAR     69  69 100 S5        29.98R
6HR MIN TEMP:  67; 6HR MAX TEMP:  69;

JOPLIN         CLOUDY    75  74  96 S6        29.98R
6HR MIN TEMP:  70; 6HR MAX TEMP:  75;

WEST PLAINS    CLEAR     68  66  93 W6        30.01R
6HR MIN TEMP:  68; 6HR MAX TEMP:  70;

ROLLA          CLEAR     67  67 100 SW7       29.97R
6HR MIN TEMP:  66; 6HR MAX TEMP:  71; 6HR PCP: TRACE;

BRANSON        PTCLDY    70  68  94 SW5       30.01S

......SURROUNDING SGF CWA......

CITY           SKY/WX    TMP DP  RH WIND       PRES   REMARKS
CHANUTE        CLOUDY    70  69  97 S3        29.96S
PARSONS        RAIN      74  72  93 CALM      29.98R FOG
COFFEYVILLE    PTCLDY    73  72  96 NW6       29.97R
EMPORIA        CLEAR     68  64  87 S8        29.95S
HARRISON AR    CLEAR     70  69  97 CALM      30.02R

......KANSAS AND MISSOURI......

CITY           SKY/WX    TMP DP  RH WIND       PRES   REMARKS
KANSAS CTY INT CLEAR     66  65  96 CALM      29.96R
SEDALIA        CLEAR     70  70 100 SW7       29.96R
ST JOSEPH      FOG       62  62 100 CALM      29.95R VSB<1/4
ST LOUIS       PTCLDY    71  68  90 SW5       29.95R
WICHITA        PTCLDY    71  69  93 S3        29.97R
TOPEKA         CLEAR     65  65 100 CALM      29.95R FOG
OLATHE         CLEAR     67  67 100 CALM      29.96R

......TENNESSEE......

CITY           SKY/WX    TMP DP  RH WIND       PRES   REMARKS
MEMPHIS        NOT AVBL
NASHVILLE      PTCLDY    68  66  93 S5        30.01R

......ARKANSAS.......

CITY           SKY/WX    TMP DP  RH WIND       PRES   REMARKS
FAYETTEVILLE   CLEAR     68  68 100 SW6       30.02S
FT SMITH       CLOUDY    72  72 100 E7        29.99S FOG
LITTLE ROCK    CLEAR     71  71 100 W6        29.99R

......OKLAHOMA.......

CITY           SKY/WX    TMP DP  RH WIND       PRES   REMARKS
TULSA          PTCLDY    76  73  91 S7        29.95R
PONCA CITY     CLEAR     74  70  87 CALM      29.96R
MCALESTER      PTCLDY    75  73  93 CALM      30.00R
OKLAHOMA CITY  PTCLDY    72  71  97 S7        30.00R

......IOWA............

CITY           SKY/WX    TMP DP  RH WIND       PRES   REMARKS
DES MOINES     NOT AVBL
QUAD CITIES    CLOUDY    65  61  87 CALM      29.94R

......ILLINOIS........

CITY           SKY/WX    TMP DP  RH WIND       PRES   REMARKS
QUINCY         FOG       64  64 100 CALM      29.94R VSB 3/4
CHICAGO        PTCLDY    64  60  87 NW6       29.94R



USA.gov is the U.S. government's official web portal to all federal, state and local government web resources and services.